Stations météo

Publicité
Hurguada, Egypte (62463): Température de l'air & dewpoint: 17.01.2017 02:00:00 - 23.01.2017 02:00:00 (EET)Hurguada, Egypte (62463): Vitesse du vent: 17.01.2017 02:00:00 - 23.01.2017 02:00:00 (EET)Hurguada, Egypte (62463): Direction du vent: 17.01.2017 02:00:00 - 23.01.2017 02:00:00 (EET)Hurguada, Egypte (62463): reduced air pressure: 17.01.2017 02:00:00 - 23.01.2017 02:00:00 (EET)Hurguada, Egypte (62463): visibility: 17.01.2017 02:00:00 - 23.01.2017 02:00:00 (EET)
Date & Time tt [°C] td [°C] ff [km/h] ff [knt] dd ppp [hPa] vv [km]
23.01.2017 02:00:00 - - - - - - -
23.01.2017 01:00:00 - - - - - - -
23.01.2017 00:00:00 - - - - - - -
22.01.2017 23:00:00 17,1 1,1 11 6 NNW 1020,5 10
22.01.2017 22:00:00 - - - - - - -
22.01.2017 21:00:00 - - - - - - -
22.01.2017 20:00:00 18,0 5,1 18 10 NNW 1019,5 10
22.01.2017 19:00:00 - - - - - - -
22.01.2017 18:00:00 - - - - - - -
22.01.2017 17:00:00 19,6 6,6 24 13 N 1018,4 10
22.01.2017 16:00:00 - - - - - - -
22.01.2017 15:00:00 - - - - - - -
22.01.2017 14:00:00 20,9 7,1 26 14 N 1018,0 10
22.01.2017 13:00:00 - - - - - - -
22.01.2017 12:00:00 - - - - - - -
22.01.2017 11:00:00 19,6 6,0 28 15 N 1020,9 10
22.01.2017 10:00:00 - - - - - - -
22.01.2017 09:00:00 - - - - - - -
22.01.2017 08:00:00 13,6 3,9 21 11 WNW 1020,5 10
22.01.2017 07:00:00 - - - - - - -
22.01.2017 06:00:00 - - - - - - -
22.01.2017 05:00:00 11,8 5,4 18 10 NW 1019,4 10
22.01.2017 04:00:00 - - - - - - -
22.01.2017 03:00:00 - - - - - - -
22.01.2017 02:00:00 13,2 4,6 21 11 NW 1019,2 10
22.01.2017 01:00:00 - - - - - - -
22.01.2017 00:00:00 - - - - - - -
21.01.2017 23:00:00 15,0 4,4 24 13 NW 1019,2 10
21.01.2017 22:00:00 - - - - - - -
21.01.2017 21:00:00 - - - - - - -
21.01.2017 20:00:00 16,3 4,0 11 6 WNW 1018,4 10
21.01.2017 19:00:00 - - - - - - -
21.01.2017 18:00:00 - - - - - - -
21.01.2017 17:00:00 20,4 5,6 28 15 N 1016,2 6
21.01.2017 16:00:00 - - - - - - -
21.01.2017 15:00:00 - - - - - - -
21.01.2017 14:00:00 21,6 6,0 41 22 N 1015,5 4,0
21.01.2017 13:00:00 - - - - - - -
21.01.2017 12:00:00 - - - - - - -
21.01.2017 11:00:00 19,6 6,1 29 16 NNW 1018,2 10
21.01.2017 10:00:00 - - - - - - -
21.01.2017 09:00:00 - - - - - - -
21.01.2017 08:00:00 13,6 3,0 18 10 WNW 1017,9 10
21.01.2017 07:00:00 - - - - - - -
21.01.2017 06:00:00 - - - - - - -
21.01.2017 05:00:00 12,1 3,8 13 7 NW 1016,5 10
21.01.2017 04:00:00 - - - - - - -
21.01.2017 03:00:00 - - - - - - -
21.01.2017 02:00:00 14,0 2,9 9 5 NW 1016,8 10
21.01.2017 01:00:00 - - - - - - -
21.01.2017 00:00:00 - - - - - - -
20.01.2017 23:00:00 16,0 1,8 15 8 WNW 1017,3 10
20.01.2017 22:00:00 - - - - - - -
20.01.2017 21:00:00 - - - - - - -
20.01.2017 20:00:00 17,9 5,1 26 14 NNW 1017,1 10
20.01.2017 19:00:00 - - - - - - -
20.01.2017 18:00:00 - - - - - - -
20.01.2017 17:00:00 19,9 9,5 24 13 N 1016,0 10
20.01.2017 16:00:00 - - - - - - -
20.01.2017 15:00:00 - - - - - - -
20.01.2017 14:00:00 23,8 6,6 22 12 N 1016,4 10
20.01.2017 13:00:00 - - - - - - -
20.01.2017 12:00:00 - - - - - - -
20.01.2017 11:00:00 19,5 7,6 24 13 NW 1019,4 10
20.01.2017 10:00:00 - - - - - - -
20.01.2017 09:00:00 - - - - - - -
20.01.2017 08:00:00 14,7 4,4 22 12 NW 1020,0 10
20.01.2017 07:00:00 - - - - - - -
20.01.2017 06:00:00 - - - - - - -
20.01.2017 05:00:00 12,2 2,8 11 6 WNW 1018,6 10
20.01.2017 04:00:00 - - - - - - -
20.01.2017 03:00:00 - - - - - - -
20.01.2017 02:00:00 13,7 2,9 13 7 NW 1019,0 10
20.01.2017 01:00:00 - - - - - - -
20.01.2017 00:00:00 - - - - - - -
19.01.2017 23:00:00 16,7 2,7 16 9 WNW 1020,0 10
19.01.2017 22:00:00 - - - - - - -
19.01.2017 21:00:00 - - - - - - -
19.01.2017 20:00:00 17,9 6,7 24 13 NNW 1019,6 10
19.01.2017 19:00:00 - - - - - - -
19.01.2017 18:00:00 - - - - - - -
19.01.2017 17:00:00 19,8 7,8 22 12 N 1018,0 10
19.01.2017 16:00:00 - - - - - - -
19.01.2017 15:00:00 - - - - - - -
19.01.2017 14:00:00 21,6 7,0 22 12 N 1018,0 10
19.01.2017 13:00:00 - - - - - - -
19.01.2017 12:00:00 - - - - - - -
19.01.2017 11:00:00 - - - - - - -
19.01.2017 10:00:00 - - - - - - -
19.01.2017 09:00:00 - - - - - - -
19.01.2017 08:00:00 14,4 5,6 26 14 NW 1021,1 10
19.01.2017 07:00:00 - - - - - - -
19.01.2017 06:00:00 - - - - - - -
19.01.2017 05:00:00 - - - - - - -
19.01.2017 04:00:00 - - - - - - -
19.01.2017 03:00:00 - - - - - - -
19.01.2017 02:00:00 14,4 6,1 18 10 NW 1018,9 10
19.01.2017 01:00:00 - - - - - - -
19.01.2017 00:00:00 - - - - - - -
18.01.2017 23:00:00 15,0 6,1 13 7 NNW 1019,0 10
18.01.2017 22:00:00 - - - - - - -
18.01.2017 21:00:00 - - - - - - -
18.01.2017 20:00:00 18,5 5,7 22 12 NNW 1018,2 10
18.01.2017 19:00:00 - - - - - - -
18.01.2017 18:00:00 - - - - - - -
18.01.2017 17:00:00 21,3 7,9 26 14 N 1016,9 10
18.01.2017 16:00:00 - - - - - - -
18.01.2017 15:00:00 - - - - - - -
18.01.2017 14:00:00 23,4 6,2 11 6 N 1015,9 10
18.01.2017 13:00:00 - - - - - - -
18.01.2017 12:00:00 - - - - - - -
18.01.2017 11:00:00 20,0 4,9 16 9 NNW 1017,4 10
18.01.2017 10:00:00 - - - - - - -
18.01.2017 09:00:00 - - - - - - -
18.01.2017 08:00:00 17,0 6,5 9 5 NNW 1017,7 10
18.01.2017 07:00:00 - - - - - - -
18.01.2017 06:00:00 - - - - - - -
18.01.2017 05:00:00 16,4 7,8 11 6 NNW 1015,2 10
18.01.2017 04:00:00 - - - - - - -
18.01.2017 03:00:00 - - - - - - -
18.01.2017 02:00:00 16,4 6,6 0 0 N 1014,5 10
18.01.2017 01:00:00 - - - - - - -
18.01.2017 00:00:00 - - - - - - -
17.01.2017 23:00:00 17,1 7,4 8 4 W 1015,5 10
17.01.2017 22:00:00 - - - - - - -
17.01.2017 21:00:00 - - - - - - -
17.01.2017 20:00:00 18,2 6,4 4 2 WSW 1015,1 10
17.01.2017 19:00:00 - - - - - - -
17.01.2017 18:00:00 - - - - - - -
17.01.2017 17:00:00 22,1 7,5 4 2 N 1014,6 10
17.01.2017 16:00:00 - - - - - - -
17.01.2017 15:00:00 - - - - - - -
17.01.2017 14:00:00 - - - - - - -
17.01.2017 13:00:00 - - - - - - -
17.01.2017 12:00:00 - - - - - - -
17.01.2017 11:00:00 - - - - - - -
17.01.2017 10:00:00 - - - - - - -
17.01.2017 09:00:00 - - - - - - -
17.01.2017 08:00:00 14,2 5,0 15 8 NW 1016,8 10
17.01.2017 07:00:00 - - - - - - -
17.01.2017 06:00:00 - - - - - - -
17.01.2017 05:00:00 11,8 6,6 11 6 WNW 1016,0 10
17.01.2017 04:00:00 - - - - - - -
17.01.2017 03:00:00 - - - - - - -
17.01.2017 02:00:00 12,3 6,8 11 6 WNW 1016,2 10

tt = Température de l'air
td = dewpoint
ff = Vitesse du vent
dd = Direction du vent
ppp = reduced air pressure
vv = visibility

stations d'obs. à proximité